[[{"header":{"parameterUnit":"m.s-1","parameterCategory":1,"la1":30.2992,"la2":30.254,"lo1":-89.0895,"lo2":-89.0443,"dy":0.0025,"dx":0.0025,"nx":19,"ny":19,"refTime":"2026-04-28T03:00:00:Z","depth":0,"parameterNumber":2,"parameterNumberName":"U-component_of_WINDS"},"data":[0,0,0,-0.9635,-0.9636,-0.9662,-0.9662,-0.9698,-0.9699,0,0,0,0,0,0,0,0,0,0,0,-0.9628,-0.9628,-0.9635,-0.9636,-0.9662,-0.9662,-0.9698,-0.9699,0,0,0,0,0,0,0,0,0,0,0,-0.9627,-0.9628,-0.9628,-0.9636,-0.9662,-0.9662,-0.9698,-0.9678,0,0,0,0,0,0,0,0,0,0,-0.9652,-0.9645,-0.9628,-0.9628,-0.9636,-0.9662,-0.9662,-0.9677,-0.9679,-0.9687,0,-0.9693,0,-0.9696,-0.9701,-0.9701,0,0,0,-0.9636,-0.9643,-0.9649,-0.9628,-0.9636,-0.9662,-0.965,-0.9678,-0.9681,-0.969,-0.9693,-0.9695,-0.9697,-0.9701,-0.9701,-0.9742,-0.9742,0,0,-0.9635,-0.9633,-0.9648,-0.9651,-0.9645,-0.9649,-0.9651,-0.968,-0.9684,-0.9693,-0.9695,-0.9697,-0.9701,-0.9702,-0.9742,-0.9742,0,0,0,-0.963,-0.9632,-0.9638,-0.965,-0.9654,-0.965,-0.9652,-0.9682,-0.9684,-0.9696,-0.9698,-0.9702,-0.9702,-0.9742,-0.9742,-0.9748,0,0,0,-0.9629,-0.9629,-0.9637,-0.9636,-0.9654,-0.9668,-0.9654,-0.9682,-0.9686,-0.9697,-0.9702,-0.9703,-0.9742,-0.9742,-0.9748,-0.9752,0,0,0,-0.9626,-0.9629,-0.9632,-0.9636,-0.9647,-0.9668,-0.9671,-0.9683,-0.9687,-0.9701,-0.9703,-0.9741,-0.9742,-0.9747,-0.9751,-0.9762,0,0,0,-0.9622,-0.9638,-0.9632,-0.9651,-0.9647,-0.9671,-0.9671,-0.969,-0.9703,-0.9702,-0.9742,-0.9742,-0.9747,-0.9751,-0.9762,-0.9772,-0.9776,0,0,-0.9642,-0.9641,-0.9652,-0.9647,-0.9672,-0.9667,-0.9693,-0.9707,-0.9711,-0.9732,-0.9733,-0.9748,-0.9751,-0.9762,-0.9796,-0.9799,0,0,0,-0.9658,-0.9666,-0.9673,-0.9684,-0.9694,-0.9704,-0.9714,-0.972,-0.9737,-0.9721,-0.9755,-0.9757,-0.9763,-0.9768,-0.9771,-0.9777,-0.9744,-0.9744,-0.9744,-0.9684,-0.9686,-0.9706,-0.9711,-0.9723,-0.9732,-0.9742,-0.9751,-0.9752,-0.976,-0.9767,-0.9786,-0.9792,-0.9794,-0.98,-0.9771,-0.9771,-0.9771,-0.9771,-0.9714,-0.9726,-0.9725,-0.9743,-0.9746,-0.9762,-0.9773,-0.9772,-0.9788,-0.9782,-0.9788,-0.9781,-0.9797,-0.9803,-0.9772,-0.9772,-0.9772,-0.9772,-0.9772,-0.9732,-0.9739,-0.9744,-0.976,-0.9772,-0.9778,-0.9793,-0.9795,-0.9798,-0.9804,-0.9811,-0.9811,-0.9812,-0.9807,-0.9807,-0.9807,-0.9807,-0.9807,-0.9807,-0.975,-0.9755,-0.9767,-0.9778,-0.9786,-0.9796,-0.9805,-0.9813,-0.9823,-0.9823,-0.9824,-0.9824,-0.9797,-0.9791,-0.9808,-0.9808,-0.9808,-0.9808,-0.9808,-0.9782,-0.9775,-0.9793,-0.98,-0.9813,-0.9826,-0.9828,-0.9843,-0.985,-0.9858,-0.9856,-0.9835,-0.9835,-0.9833,-0.9828,-0.9855,-0.9855,-0.9855,-0.9855,-0.9799,-0.9798,-0.9816,-0.9828,-0.9839,-0.9842,-0.9864,-0.9871,-0.9878,-0.9883,-0.9879,-0.9872,-0.987,-0.9871,-0.9868,-0.9864,-0.9898,-0.9898,-0.9898,-0.9819,-0.9819,-0.9836,-0.9841,-0.9851,-0.9861,-0.9881,-0.9895,-0.9901,-0.99,-0.9887,-0.9885,-0.9874,-0.987,-0.987,-0.9865,-0.9857,0,0]},{"header":{"parameterUnit":"m.s-1","parameterCategory":1,"la1":30.2992,"la2":30.254,"lo1":-89.0895,"lo2":-89.0443,"dy":0.0025,"dx":0.0025,"nx":19,"ny":19,"refTime":"2026-04-28T03:00:00:Z","depth":0,"parameterNumber":3,"parameterNumberName":"V-component_of_WINDS"},"data":[0,0,0,4.7683,4.7686,4.7776,4.7776,4.7902,4.7903,0,0,0,0,0,0,0,0,0,0,0,4.7664,4.7665,4.7683,4.7686,4.7776,4.7776,4.7901,4.7903,0,0,0,0,0,0,0,0,0,0,0,4.7663,4.7664,4.7666,4.7686,4.7776,4.7776,4.7901,4.7829,0,0,0,0,0,0,0,0,0,0,4.774,4.7728,4.7664,4.7666,4.7687,4.7776,4.7776,4.7826,4.7834,4.7865,0,4.7896,0,4.7901,4.7912,4.7912,0,0,0,4.768,4.7722,4.774,4.7666,4.7688,4.7776,4.7734,4.783,4.7839,4.7876,4.7897,4.7902,4.7904,4.7913,4.7914,4.8115,4.8116,0,0,4.7676,4.7683,4.7734,4.7746,4.7734,4.7731,4.7737,4.7835,4.7859,4.7898,4.7905,4.7906,4.7914,4.7915,4.8114,4.8115,0,0,0,4.7665,4.768,4.7696,4.7741,4.7757,4.7734,4.774,4.7855,4.7859,4.7906,4.7907,4.7915,4.7916,4.8112,4.8114,4.8181,0,0,0,4.7661,4.7674,4.7694,4.7699,4.7755,4.7807,4.7757,4.7852,4.7863,4.7906,4.7915,4.7918,4.8111,4.8113,4.8177,4.8212,0,0,0,4.7655,4.7673,4.7688,4.77,4.7739,4.7805,4.7815,4.7854,4.7864,4.7913,4.7918,4.811,4.8113,4.8172,4.8205,4.8268,0,0,0,4.7651,4.7746,4.769,4.7797,4.7738,4.7846,4.7814,4.7894,4.7944,4.7915,4.8111,4.8114,4.8171,4.8201,4.8263,4.8323,4.8348,0,0,4.7776,4.7762,4.7824,4.7776,4.7896,4.7832,4.7961,4.7999,4.7996,4.8075,4.808,4.8178,4.8205,4.8267,4.8485,4.8505,0,0,0,4.7866,4.7911,4.7941,4.7989,4.802,4.805,4.8067,4.808,4.8147,4.8038,4.8217,4.8232,4.8269,4.8297,4.8314,4.8345,4.8127,4.8127,4.8126,4.8055,4.8046,4.8149,4.8151,4.8198,4.8214,4.8251,4.8272,4.8249,4.8291,4.8315,4.8449,4.8482,4.8495,4.8527,4.8345,4.8345,4.8346,4.8346,4.8238,4.8301,4.8268,4.8356,4.8346,4.8419,4.8438,4.842,4.8486,4.843,4.8462,4.8402,4.8517,4.8545,4.8351,4.835,4.8349,4.8349,4.8348,4.8361,4.839,4.8405,4.8473,4.8527,4.8525,4.8591,4.8579,4.8568,4.8599,4.8623,4.8622,4.862,4.8611,4.8611,4.8612,4.8612,4.8613,4.8613,4.8484,4.8499,4.8556,4.8597,4.8626,4.8663,4.868,4.8708,4.8736,4.8722,4.8722,4.8696,4.853,4.8489,4.862,4.8619,4.8618,4.8617,4.8617,4.8675,4.863,4.8718,4.8748,4.8794,4.8848,4.8832,4.889,4.8911,4.8944,4.891,4.879,4.8774,4.8761,4.8727,4.8912,4.8912,4.8912,4.8912,4.878,4.8771,4.8859,4.8906,4.8951,4.8945,4.9045,4.9059,4.9066,4.9079,4.905,4.9003,4.899,4.8983,4.8964,4.8933,4.9165,4.9166,4.9166,4.8897,4.8892,4.898,4.8986,4.9022,4.9053,4.9146,4.9202,4.92,4.9176,4.9088,4.9078,4.9003,4.8979,4.8954,4.8925,4.8867,0,0]}]]